Regional Weather Roundup
Issued by NWS

Home | Current Version | Previous Version | Text Only | Print | Product List | Glossary On
Versions: 1 2 3 4 5 6 7 8 9 10 11 12 13 14 15 16 17 18 19 20 21 22 23 24 25 26 27 28 29 30 31 32 33 34 35 36 37 38 39 40 41 42 43 44 45 46 47 48 49 50
000
ASUS44 KFWD 250103
RWRTX
NORTH TEXAS HOURLY WEATHER ROUNDUP
NATIONAL WEATHER SERVICE FORT WORTH TX
700 PM CST FRI FEB 24 2017

NOTE: "FAIR" INDICATES FEW OR NO CLOUDS BELOW 12,000 FEET WITH NO
SIGNIFICANT WEATHER AND/OR OBSTRUCTIONS TO VISIBILITY.

TXZ118-119-250200-
DALLAS/FORT WORTH METROPLEX

CITY           SKY/WX    TMP DP  RH WIND       PRES   REMARKS
DFW AIRPORT    CLEAR     57  30  35 NW14      29.95R
DALLAS LOVE    CLEAR     58  29  33 NW16      29.96R
FTW MEACHAM    CLEAR     55  28  35 NW14      29.98R
DAL-EXECUTIVE  CLEAR     55  31  39 NW12      29.95R
FTW-ALLIANCE   CLEAR     53  28  38 NW12      29.98R
FTW-NAS-JRB    CLEAR     56  29  35 NW16      29.99R
FTW-SPINKS     CLEAR     55  30  38 NW12      29.99R
ARLINGTON      CLEAR     56  29  35 NW13      29.97R
GRAND PRAIRIE  CLEAR     57  29  33 NW7       29.98R
ADDISON        CLEAR     55  27  33 NW13G18   29.97R
MESQUITE       CLEAR     55  28  35 NW12      29.95R
LANCASTER      CLEAR     53  33  47 NW9       29.97R
$$

TXZ091>094-102>105-117-120-121-131>134-250200-
NORTH CENTRAL TEXAS

CITY           SKY/WX    TMP DP  RH WIND       PRES   REMARKS
SHRMAN/DENISON CLEAR     50  28  42 N13       29.99R
GAINESVILLE    CLEAR     50  27  40 NW10      30.00R
BOWIE          CLEAR     49  30  47 N7        30.00R
BRIDGEPORT     CLEAR     52  31  43 NW9       30.02R
DECATUR        CLEAR     50  28  42 NW7       29.99R
DENTON         CLEAR     52  30  43 NW12      29.98R
MCKINNEY       CLEAR     54  31  41 NW13      29.96R
BONHAM         CLEAR     52  28  40 NW9       29.96R
GREENVILLE     CLEAR     55  28  35 NW8       29.95R
ROCKWALL       CLEAR     56  32  40 NW10      29.95R
TERRELL        CLEAR     57  31  37 NW10      29.95R
WAXAHACHIE     CLEAR     53  35  49 NW7       29.97R
CLEBURNE       CLEAR     54  32  43 NW10      29.99R
GRANBURY       CLEAR     54  32  43 NW6       30.00R
$$

TXZ083>090-098>101-113>116-127>130-139>142-154-155-250200-
WESTERN NORTH TEXAS

CITY           SKY/WX    TMP DP  RH WIND       PRES   REMARKS
WICHITA FALLS  CLEAR     45  26  47 N8        30.00R
WF-KICKAPOO    CLEAR     52  23  33 N9        30.02R
VERNON         CLEAR     49  23  35 N7        30.02R
ABILENE        CLEAR     53  27  36 NE7       29.97R
ABILENE-DYESS  CLEAR     53  29  40 E7        29.95R
BRECKENRIDGE   CLEAR     54  26  34 N5        30.00R
CISCO          CLEAR     54  28  37 N9        29.98S
RANGER         CLEAR     50  30  46 N7        30.00R
MINERAL WELLS  CLEAR     50  28  42 N7        29.98R
STEPHENVILLE   CLEAR     54  30  40 N7        30.00R
COMANCHE       CLEAR     52  33  48 N8        29.98R
BROWNWOOD      CLEAR     55  30  38 N8        29.96S
COLEMAN        CLEAR     54  30  40 N8        29.96S
$$

TXZ143>147-156>162-174-175-250200-
CENTRAL TEXAS

CITY           SKY/WX    TMP DP  RH WIND       PRES   REMARKS
WACO           CLEAR     55  39  54 N9        29.95R
WACO-TSTC      CLEAR     57  37  47 NW9       29.95
WACO-MCGREGOR  CLEAR     55  40  56 NW6       29.96R
HILLSBORO      CLEAR     54  38  54 NW9       29.96R
CORSICANA      CLEAR     54  38  54 NW9       29.95R
MEXIA          CLEAR     55  37  49 NW8       29.93R
HEARNE         CLEAR     58  42  56 NW8       29.93R
CAMERON        CLEAR     58  43  58 N3        29.92R
TEMPLE         CLEAR     56  40  55 NW8       29.95R
KILLEEN        CLEAR     57  36  45 N10       29.94R
KILLEEN-SKYLRK CLEAR     59  34  39 N10       29.95R
FORT HOOD      CLEAR     58  33  38 N9        29.92R
HAMILTON       CLEAR     54  34  46 N10       29.98R
LAMPASAS       CLEAR     58  35  42 CALM      29.93R
$$

TXZ095>097-106>112-122>126-135>138-148>153-164>167-250200-
EAST TEXAS

CITY           SKY/WX    TMP DP  RH WIND       PRES   REMARKS
PARIS          CLEAR     54  28  37 NW14      29.93R
SULPHUR SPRNGS CLEAR     56  32  40 NW12      29.95R
MOUNT PLEASANT CLEAR     57  33  41 NW9       29.92R
GILMER         CLEAR     56  37  48 NW6       29.90R
MINEOLA        CLEAR     55  37  50 NW6       29.92R
TYLER          CLEAR     58  37  45 NW13      29.90R
LONGVIEW       CLEAR     59  40  49 NW9       29.86R
MARSHALL       CLEAR     58  38  46 NW10      29.88R
ATHENS         CLEAR     55  34  44 N3        29.91R
PALESTINE      CLEAR     58  41  52 NW7       29.92R
JACKSONVILLE   CLEAR     60  43  54 NW8       29.89R
HENDERSON      CLEAR     60  39  45 NW3       29.88R
CENTER         CLEAR     67  47  48 NW9       29.84R
NACOGDOCHES    CLEAR     61  45  55 NW10      29.84R
LUFKIN         CLEAR     63  44  50 NW8       29.84R
$$

SUPPLEMENTAL OBSERVATIONS (CENTRAL)

CITY           SKY/WX    TMP DP  RH WIND       PRES   REMARKS
$$

SUPPLEMENTAL OBSERVATIONS (WEST)

CITY           SKY/WX    TMP DP  RH WIND       PRES   REMARKS
$$

SUPPLEMENTAL OBSERVATIONS (EAST)

CITY           SKY/WX    TMP DP  RH WIND       PRES   REMARKS
$$

SUPPLEMENTAL OBSERVATIONS ARE A COLLECTION OF AUTOMATED INSTRUMENTS
THAT ARE MAINTAINED BY A VARIETY OF FEDERAL AND STATE AGENCIES.
CERTAIN ELEMENTS...SUCH AS HUMIDITY VALUES AND SUSTAINED WIND
SPEEDS...MAY BE APPROXIMATED.




USA.gov is the U.S. government's official web portal to all federal, state and local government web resources and services.